Dewpoint
2 1 0 -2 -9 -6 -8 -14 -12 -12 -15 -16 -16 -17 -13 -13 -12 -11 -11 -12 -10 -10 -10 -9 -9 -9 -10 -11 -9 -8 -10 -11 -9 -10 -14 -12 -14 -11 -13 -9 -8 -10 -7 -8
2 2 2 -1 -6 -8 -6 -12 -10 -11 -10 -13 -14 -14 -13 -13 -13 -12 -12 -11 -10 -12 -10 -11 -9 -10 -12 -11 -9 -9 -10 -11 -14 -15 -15 -13 -12 -13 -14 -15 -12 -11 -10 -9
4 3 3 1 -3 -8 -6 -7 -5 -8 -11 -16 -16 -15 -13 -14 -13 -13 -12 -12 -11 -11 -10 -10 -11 -11 -12 -11 -9 -9 -9 -12 -14 -15 -16 -12 -12 -11 -13 -13 -11 -11 -10 -10
5 5 3 2 1 -3 -5 -4 -8 -7 -7 -8 -13 -12 -12 -13 -14 -11 -11 -12 -11 -12 -12 -12 -10 -11 -11 -11 -10 -11 -13 -12 -11 -12 -12 -11 -10 -11 -11 -12 -13 -10 -12 -9
5 4 4 3 3 -0 -1 -3 -3 -7 -8 -6 -11 -11 -10 -12 -14 -12 -11 -10 -12 -11 -12 -14 -16 -14 -13 -12 -12 -11 -12 -15 -10 -10 -11 -12 -11 -12 -10 -9 -10 -11 -12 -10
4 4 4 3 3 2 -0 -1 -2 -5 -5 -7 -7 -7 -9 -11 -13 -13 -14 -11 -10 -11 -10 -11 -12 -13 -12 -13 -12 -12 -13 -11 -11 -13 -12 -12 -13 -13 -11 -13 -13 -11 -9 -12
5 4 4 4 3 3 2 1 -0 -2 -2 -6 -4 -8 -9 -9 -11 -12 -11 -11 -12 -12 -11 -11 -11 -10 -10 -10 -10 -11 -14 -16 -15 -9 -13 -18 -17 -13 -13 -12 -14 -12 -11 -12
5 5 5 5 4 4 3 2 1 -0 -4 -3 -3 -5 -5 -8 -9 -9 -8 -9 -10 -10 -12 -10 -11 -9 -10 -10 -10 -12 -13 -16 -13 -12 -11 -13 -15 -12 -11 -12 -17 -13 -11 -12
5 6 5 4 5 5 4 3 2 1 -1 -3 -2 -3 -7 -9 -10 -10 -9 -10 -11 -13 -9 -8 -10 -8 -12 -13 -11 -12 -14 -17 -14 -14 -10 -14 -16 -12 -11 -14 -13 -13 -11 -12
5 6 5 5 5 5 5 4 3 2 1 -0 -1 -2 -5 -5 -9 -8 -9 -10 -12 -13 -9 -7 -7 -9 -12 -11 -11 -11 -11 -12 -12 -12 -12 -11 -14 -11 -11 -17 -17 -12 -11 -12
5 6 5 5 5 5 5 4 3 2 1 2 -0 -1 -2 -4 -7 -6 -8 -9 -9 -10 -10 -9 -9 -10 -11 -11 -12 -12 -11 -11 -10 -13 -14 -11 -12 -10 -17 -16 -12 -15 -15 -15
5 6 6 6 6 6 5 4 3 1 1 2 1 -0 -1 -2 -2 -4 -7 -9 -12 -12 -11 -12 -13 -9 -13 -12 -10 -14 -10 -11 -12 -11 -11 -15 -12 -16 -18 -16 -17 -16 -17 -17
5 5 5 5 5 6 5 4 4 2 0 1 -0 -2 -2 -2 -2 -3 -5 -7 -7 -9 -10 -9 -13 -10 -9 -10 -10 -12 -12 -12 -12 -13 -12 -13 -14 -14 -14 -14 -15 -16 -15 -15
5 5 6 6 6 6 5 4 3 2 1 -1 -2 -2 -2 -3 -4 -5 -5 -5 -7 -10 -12 -11 -14 -10 -11 -9 -11 -10 -11 -13 -14 -13 -13 -14 -15 -15 -16 -16 -14 -13 -13 -14
4 5 7 6 6 5 3 2 2 2 1 -1 -1 -2 -3 -5 -5 -6 -7 -6 -7 -7 -7 -9 -10 -9 -9 -11 -12 -11 -12 -12 -11 -10 -13 -13 -13 -13 -15 -18 -18 -14 -14 -15
5 5 5 6 6 5 3 1 2 1 -0 -1 -2 -4 -5 -5 -7 -8 -8 -7 -7 -7 -7 -7 -7 -8 -9 -11 -10 -12 -12 -12 -13 -14 -13 -12 -12 -12 -12 -12 -15 -17 -16 -17
6 6 5 6 6 4 2 2 1 0 -1 -1 -3 -5 -5 -8 -8 -8 -7 -8 -7 -7 -7 -8 -8 -7 -8 -15 -11 -12 -11 -12 -12 -11 -10 -10 -11 -12 -11 -12 -15 -15 -15 -15
6 6 6 4 2 1 0 0 -0 -1 -2 -2 -5 -6 -6 -7 -8 -8 -8 -8 -8 -8 -8 -8 -8 -9 -9 -9 -11 -12 -12 -12 -12 -12 -11 -11 -11 -13 -14 -12 -13 -14 -14 -14
6 6 5 2 0 -0 -1 -1 -1 -2 -1 -4 -6 -6 -4 -7 -8 -8 -8 -9 -10 -9 -10 -10 -10 -10 -10 -11 -12 -12 -13 -13 -13 -13 -13 -12 -11 -12 -13 -14 -13 -13 -14 -13
6 6 2 0 -0 -1 -2 -3 -4 -5 -5 -5 -6 -6 -7 -8 -9 -9 -9 -9 -13 -13 -12 -10 -10 -10 -12 -12 -10 -10 -13 -14 -12 -12 -13 -13 -13 -12 -12 -14 -13 -13 -13 -12
4 3 1 -2 -3 -3 -3 -5 -6 -7 -7 -7 -7 -7 -9 -7 -10 -9 -8 -12 -12 -12 -12 -10 -11 -11 -12 -6 -6 -6 -6 -6 -7 -8 -9 -12 -13 -13 -11 -12 -13 -12 -12 -13
4 3 -1 -5 -4 -5 -5 -5 -7 -7 -5 -7 -7 -7 -7 -7 -7 -8 -9 -11 -11 -10 -11 -11 -11 -13 -9 -7 -7 -8 -7 -7 -7 -8 -8 -8 -10 -12 -12 -13 -13 -12 -12 -13
2 1 -1 -3 -5 -4 -4 -3 -4 -5 -6 -7 -8 -8 -7 -8 -8 -8 -10 -11 -10 -11 -11 -10 -12 -11 -9 -9 -9 -8 -9 -9 -10 -11 -10 -9 -8 -11 -12 -12 -12 -13 -13 -11
2 -0 -2 -3 -3 -3 -3 -2 -3 -4 -4 -6 -7 -8 -8 -8 -9 -9 -9 -9 -10 -9 -9 -10 -10 -11 -11 -11 -11 -11 -11 -12 -12 -12 -11 -10 -9 -10 -10 -9 -10 -11 -9 -10
1 -0 0 -2 -2 -3 -3 -3 -1 -3 -4 -6 -7 -8 -8 -9 -8 -9 -9 -9 -9 -9 -9 -10 -13 -13 -13 -14 -13 -13 -14 -14 -13 -13 -12 -11 -11 -11 -11 -11 -11 -11 -11 -11
1 0 -0 -0 -1 -2 -2 -2 -3 -3 -5 -5 -6 -8 -8 -8 -9 -9 -9 -8 -8 -10 -12 -14 -15 -15 -15 -15 -15 -15 -15 -15 -14 -14 -14 -13 -13 -13 -13 -12 -12 -12 -13 -12
-0 -1 0 -0 -1 -1 -2 -1 -1 -3 -5 -5 -6 -6 -5 -8 -8 -8 -9 -10 -14 -15 -16 -16 -16 -16 -16 -16 -16 -16 -16 -16 -16 -15 -15 -15 -15 -14 -14 -14 -14 -14 -14 -14
Wind_Speed
31 34 37 38 32 26 10 4 3 14 11 8 5 3 3 3 4 4 2 2 4 3 2 2 2 4 6 7 3 2 3 3 4 8 4 4 3 0 4 4 5 1 2 5
27 31 35 37 35 28 14 3 3 8 10 4 2 1 1 3 4 4 4 4 6 3 3 1 4 4 3 6 5 2 3 2 5 8 5 4 4 2 2 2 2 1 3 5
23 28 31 34 35 31 14 3 3 6 10 7 3 2 1 2 4 3 4 3 2 1 3 5 4 3 1 3 4 7 2 2 6 5 7 2 5 6 1 4 3 2 4 7
22 25 26 30 32 29 12 10 4 4 3 4 2 2 1 2 2 3 6 2 6 5 2 3 4 3 5 1 7 3 4 3 2 7 13 7 9 8 2 2 5 4 4 5
21 23 22 25 30 28 28 6 6 4 2 3 1 1 2 2 4 4 4 3 3 6 6 8 5 4 3 6 4 3 4 2 4 5 4 3 8 9 7 4 3 4 2 7
20 23 21 23 27 28 18 18 12 3 1 2 2 3 4 4 1 5 8 8 2 2 13 18 18 14 9 5 4 1 3 3 4 5 5 5 5 7 4 2 3 6 4 8
18 22 22 21 23 25 21 20 14 5 3 1 3 2 4 5 6 4 3 8 4 3 8 17 7 10 9 7 7 6 3 3 2 4 5 3 5 1 3 6 7 9 4 6
17 19 20 21 20 23 21 20 16 7 3 3 6 5 6 11 8 4 8 11 10 12 10 3 5 1 1 1 4 2 3 4 2 0 2 7 6 4 6 5 7 7 9 6
17 16 18 21 20 22 22 19 19 12 4 4 6 5 3 2 2 5 4 5 7 5 3 3 2 2 0 3 1 5 4 5 3 2 1 4 5 3 5 5 4 8 14 11
16 16 17 19 18 21 20 18 18 15 4 6 7 5 3 3 2 3 3 2 2 1 2 2 1 3 3 2 2 4 1 1 4 3 4 8 5 7 6 4 6 11 17 16
16 18 18 19 20 22 22 19 15 14 7 18 9 10 12 8 4 2 1 3 1 2 1 3 3 2 3 0 3 5 6 6 4 2 1 7 11 6 7 5 7 10 13 13
19 18 19 21 23 26 25 20 18 17 13 15 28 22 18 17 17 8 3 3 4 5 3 0 2 2 1 2 3 1 2 6 4 9 6 3 30 11 14 8 7 10 10 11
19 19 20 22 24 26 26 20 19 18 10 18 12 7 10 11 15 15 7 6 6 3 3 2 1 3 3 3 5 1 4 6 3 3 4 7 19 24 29 26 23 19 16 15
21 22 24 24 26 28 27 20 17 16 9 6 5 10 11 11 12 15 19 18 6 4 4 2 2 2 8 3 3 4 5 7 4 6 13 22 10 7 12 18 26 26 26 22
23 24 25 25 28 28 25 21 21 20 11 5 10 20 12 4 7 10 13 17 15 8 3 3 3 4 1 2 1 4 10 6 5 5 6 7 12 10 15 17 15 15 17 18
26 25 26 30 27 24 19 8 12 20 16 5 3 6 6 5 5 6 10 12 11 9 6 6 5 4 3 1 3 9 15 14 16 7 18 20 25 26 25 26 19 13 13 16
29 27 30 33 26 27 18 7 7 8 11 4 6 4 4 5 4 4 6 8 5 8 4 5 3 5 6 2 3 3 8 10 13 15 17 17 9 12 23 22 15 16 17 19
29 28 31 17 23 22 24 27 26 18 8 6 3 4 3 7 5 5 7 5 6 7 4 3 4 3 5 5 9 19 22 25 20 4 17 22 24 25 23 19 18 20 21 21
26 27 23 21 20 14 19 26 21 16 12 5 6 3 3 8 5 5 6 5 2 2 3 3 4 2 6 7 13 25 22 17 22 22 21 21 22 22 21 20 21 23 22 19
26 27 14 10 10 19 5 6 7 12 9 9 7 6 2 10 9 6 5 4 2 1 3 4 2 4 16 15 13 16 17 15 17 22 24 24 24 23 21 18 17 21 22 19
26 16 13 12 10 10 6 5 6 7 5 9 7 17 5 10 4 4 7 3 1 1 3 2 2 3 4 12 16 16 17 16 15 16 20 22 24 26 24 24 22 22 19 14
27 13 13 12 8 5 3 4 2 5 5 9 8 10 11 7 6 3 4 3 2 4 5 1 3 3 7 17 21 22 23 24 25 26 27 27 25 25 24 23 22 18 16 16
21 8 9 8 7 4 7 9 5 4 9 15 11 5 9 7 6 4 3 3 4 6 1 4 4 5 19 21 22 23 25 29 32 35 33 30 28 24 23 23 21 19 16 17
11 11 6 7 6 7 7 5 4 9 8 26 20 10 5 4 4 4 4 3 3 2 3 5 3 16 21 20 27 30 33 33 34 33 32 29 26 22 23 25 22 22 24 19
9 9 7 10 14 8 7 16 10 8 20 28 12 7 6 2 3 3 2 3 5 5 3 2 15 19 19 27 30 31 31 32 32 31 30 28 24 24 25 23 23 23 22 21
7 9 4 7 2 5 10 16 11 18 28 16 7 4 4 4 3 4 7 4 6 2 3 14 18 19 23 27 26 27 27 27 27 27 27 26 24 23 23 22 20 19 20 21
7 8 19 13 2 4 12 21 18 24 25 4 5 7 7 4 3 4 2 1 3 9 14 17 16 18 24 24 22 25 26 26 25 26 26 24 24 22 21 21 20 19 19 21
Wind_Direction
21 17 16 15 13 12 14 39 50 4 14 43 48 84 160 184 199 200 226 228 232 225 282 276 287 289 215 359 344 346 223 164 286 239 237 161 131 187 126 96 311 106 149 275
15 14 15 16 14 9 12 61 25 12 24 69 11 234 247 210 186 200 184 240 212 183 236 338 210 252 224 12 27 344 299 347 349 350 8 9 54 309 114 122 88 226 112 274
11 9 12 15 18 14 23 27 23 22 51 79 112 15 219 292 210 214 198 237 217 251 253 216 272 269 237 346 3 353 142 116 156 200 226 177 316 317 89 109 81 247 229 293
11 7 8 12 17 23 30 24 48 23 341 16 65 139 253 299 289 219 208 245 219 171 293 307 234 249 306 358 352 31 88 203 280 249 258 261 253 262 228 151 197 165 256 235
6 5 4 10 14 16 35 40 349 327 292 305 335 22 244 252 291 193 235 194 191 170 194 199 250 157 192 235 344 39 2 296 353 295 292 243 277 265 214 200 207 276 257 274
0 4 3 6 10 15 26 22 3 353 333 351 60 229 221 233 147 246 239 212 172 207 241 258 267 265 248 225 120 348 42 33 29 274 0 333 326 239 201 190 219 165 195 229
348 356 0 1 4 7 13 18 12 352 288 136 217 240 245 254 224 222 231 222 156 270 302 301 275 250 248 242 240 211 119 81 97 276 334 360 244 240 174 200 223 217 267 251
335 348 357 353 354 358 1 5 16 345 289 260 301 280 270 289 277 246 254 250 254 294 322 10 1 350 123 348 43 142 135 113 337 77 240 293 318 208 188 171 283 197 215 240
319 325 338 346 345 345 350 350 354 1 306 265 284 293 279 254 273 316 239 270 288 316 39 53 39 282 258 294 122 61 76 82 118 41 139 238 243 269 146 107 297 207 203 230
305 310 328 339 334 337 334 338 338 348 311 267 272 245 246 254 273 241 304 339 337 338 45 36 214 282 154 288 225 194 152 30 186 205 246 285 236 168 142 79 239 192 210 233
294 301 315 323 327 329 321 318 322 334 302 297 266 263 256 257 231 176 304 360 301 48 82 146 235 173 237 228 219 188 180 158 207 92 55 292 158 122 169 230 191 200 217 240
286 292 301 307 307 313 315 303 309 316 306 288 297 281 267 254 253 262 232 220 223 216 78 323 84 263 56 180 278 133 284 197 196 183 221 220 184 228 236 258 250 230 244 282
282 289 296 305 303 311 309 301 293 308 298 305 295 279 278 261 247 242 223 220 216 188 195 181 196 248 135 216 236 273 259 186 222 21 271 226 246 258 267 265 267 263 273 295
279 285 286 291 293 292 294 291 285 286 295 285 261 276 289 274 252 243 232 238 214 191 184 241 158 218 194 235 244 213 212 145 190 264 284 287 292 300 306 290 269 267 269 273
274 281 292 296 298 294 287 282 280 271 260 272 299 296 288 244 262 244 231 228 228 218 218 171 225 230 207 252 332 248 191 196 166 226 256 246 299 320 319 313 306 266 266 266
270 277 286 285 281 282 275 282 267 248 235 275 294 275 259 268 249 224 216 216 215 206 203 214 233 230 218 213 250 265 231 239 249 283 305 301 296 295 294 293 294 283 271 273
268 272 277 279 279 271 240 239 275 212 197 256 290 261 232 207 234 197 190 190 194 202 231 229 230 207 212 168 245 286 11 340 308 294 300 297 306 297 302 303 286 271 273 274
266 269 272 257 238 239 244 254 259 261 230 224 247 262 247 196 184 187 180 191 206 219 249 244 209 193 224 252 261 294 312 319 308 333 313 295 299 300 302 291 279 271 274 285
260 257 260 223 216 225 244 253 257 229 217 233 200 195 245 177 177 178 173 189 204 235 241 246 168 206 229 238 279 313 333 325 307 311 309 299 295 300 300 287 279 281 285 285
249 247 198 205 213 223 220 200 199 202 219 230 234 200 231 176 178 179 154 182 216 237 240 168 214 257 267 283 332 333 330 334 332 330 332 327 311 304 298 289 289 289 287 285
221 204 199 208 186 176 203 200 204 192 243 215 219 197 160 194 147 197 199 175 162 12 261 174 252 268 250 350 2 8 4 358 346 331 324 318 307 301 293 287 290 290 282 271
227 213 169 154 183 194 206 204 178 209 240 190 178 191 191 165 177 144 169 145 86 244 149 182 257 253 337 1 355 354 352 348 344 341 332 324 314 304 289 285 290 286 276 273
183 175 157 161 169 200 202 197 215 221 196 179 167 142 152 146 171 130 132 139 218 133 196 234 228 338 359 354 354 349 341 341 336 333 332 325 315 302 290 289 286 279 274 277
182 164 180 201 184 230 201 194 177 200 182 154 144 128 138 141 153 152 168 198 130 231 240 230 38 354 351 346 344 346 341 338 335 333 331 327 323 307 294 291 283 277 281 272
178 190 213 206 219 223 234 215 153 145 163 144 121 103 130 147 164 189 125 164 237 215 244 63 350 351 344 343 345 345 343 342 340 338 334 330 327 320 310 302 294 289 282 274
219 223 225 221 182 200 197 189 164 167 159 140 130 128 148 202 169 158 210 187 225 91 17 348 350 350 340 341 344 341 342 343 342 343 342 338 333 327 319 312 308 299 290 287
217 232 223 212 261 210 199 196 192 178 155 162 140 174 198 119 183 219 171 336 45 338 338 345 355 337 337 338 339 338 341 343 342 339 341 341 339 335 332 330 325 315 305 301
Height
1575 1571 1564 1557 1550 1544 1540 1539 1539 1539 1535 1536 1546 1554 1554 1554 1555 1556 1557 1558 1557 1556 1557 1559 1554 1546 1540 1536 1535 1536 1533 1545 1541 1521 1513 1512 1519 1522 1533 1529 1523 1534 1522 1516
1577 1573 1567 1561 1552 1544 1540 1540 1541 1541 1537 1548 1554 1553 1552 1553 1553 1554 1556 1555 1554 1554 1556 1562 1554 1544 1537 1536 1534 1537 1533 1542 1544 1515 1515 1512 1523 1526 1531 1537 1531 1543 1537 1513
1578 1574 1569 1564 1556 1548 1543 1542 1544 1543 1543 1548 1551 1552 1550 1551 1551 1552 1552 1552 1552 1552 1552 1551 1553 1542 1537 1535 1534 1532 1531 1545 1541 1547 1529 1528 1530 1517 1527 1530 1541 1540 1529 1511
1578 1574 1570 1566 1560 1554 1547 1547 1551 1551 1551 1549 1551 1552 1551 1550 1551 1551 1550 1550 1549 1554 1561 1558 1549 1542 1539 1535 1535 1533 1535 1541 1532 1527 1519 1519 1516 1514 1522 1524 1529 1527 1519 1516
1579 1575 1571 1567 1563 1557 1553 1554 1555 1552 1550 1551 1550 1550 1552 1550 1548 1548 1548 1550 1544 1548 1553 1544 1549 1547 1546 1539 1537 1537 1538 1537 1536 1528 1513 1512 1510 1503 1506 1513 1518 1520 1521 1510
1579 1575 1571 1568 1564 1561 1557 1557 1555 1553 1552 1551 1553 1552 1549 1547 1546 1542 1541 1541 1543 1546 1538 1534 1533 1532 1533 1533 1539 1542 1546 1546 1547 1533 1518 1516 1514 1503 1505 1511 1511 1505 1510 1495
1579 1575 1572 1569 1566 1563 1561 1559 1555 1553 1554 1552 1552 1549 1548 1544 1544 1545 1539 1538 1540 1534 1532 1531 1528 1530 1531 1534 1536 1537 1549 1557 1559 1542 1523 1523 1492 1491 1493 1498 1497 1495 1492 1488
1578 1575 1572 1569 1567 1564 1562 1559 1558 1555 1554 1551 1548 1546 1544 1541 1539 1539 1536 1534 1534 1533 1532 1533 1535 1530 1531 1534 1536 1538 1539 1553 1556 1548 1552 1507 1495 1491 1495 1495 1487 1482 1484 1481
1575 1573 1571 1569 1566 1563 1560 1558 1556 1555 1555 1549 1546 1543 1541 1542 1540 1537 1534 1534 1534 1534 1533 1536 1541 1533 1527 1530 1536 1540 1541 1543 1552 1559 1545 1523 1494 1490 1488 1489 1498 1473 1475 1474
1573 1571 1569 1567 1565 1562 1559 1556 1553 1552 1550 1544 1543 1541 1541 1539 1538 1538 1534 1535 1533 1534 1537 1539 1539 1536 1536 1535 1540 1544 1545 1550 1551 1548 1550 1508 1489 1487 1490 1500 1486 1469 1471 1471
1569 1567 1566 1564 1562 1560 1557 1554 1551 1551 1546 1539 1537 1537 1536 1535 1536 1537 1535 1536 1533 1533 1539 1539 1538 1541 1535 1537 1526 1529 1528 1542 1538 1547 1547 1509 1482 1489 1492 1473 1466 1467 1468 1469
1564 1563 1562 1560 1559 1557 1554 1550 1547 1545 1544 1538 1532 1529 1529 1530 1531 1532 1531 1530 1528 1526 1533 1537 1538 1534 1540 1536 1528 1513 1521 1507 1512 1508 1490 1473 1473 1467 1468 1466 1466 1466 1467 1467
1559 1558 1557 1555 1553 1551 1550 1547 1544 1540 1536 1530 1526 1524 1525 1524 1524 1525 1527 1526 1525 1526 1527 1528 1532 1534 1524 1530 1523 1515 1501 1497 1502 1494 1473 1468 1466 1467 1465 1466 1465 1465 1464 1463
1554 1553 1551 1550 1548 1545 1543 1542 1541 1540 1537 1532 1522 1520 1520 1519 1518 1518 1519 1521 1523 1524 1525 1525 1528 1527 1516 1514 1507 1506 1493 1493 1493 1487 1470 1464 1463 1463 1462 1460 1458 1458 1458 1458
1548 1547 1545 1545 1543 1540 1537 1536 1535 1534 1538 1529 1520 1515 1512 1512 1512 1512 1513 1515 1518 1520 1522 1522 1522 1515 1513 1508 1507 1498 1481 1478 1483 1478 1465 1465 1463 1461 1459 1456 1453 1452 1453 1453
1541 1541 1540 1538 1534 1533 1533 1531 1526 1526 1528 1527 1521 1514 1509 1509 1509 1509 1509 1510 1513 1516 1516 1514 1510 1509 1510 1513 1506 1470 1469 1468 1468 1466 1464 1463 1460 1458 1457 1454 1453 1451 1452 1451
1533 1533 1533 1529 1525 1526 1528 1527 1524 1523 1526 1525 1518 1509 1506 1506 1506 1508 1509 1510 1511 1512 1512 1509 1507 1506 1507 1507 1499 1469 1469 1468 1466 1463 1461 1456 1454 1453 1452 1451 1448 1446 1445 1443
1525 1525 1524 1521 1518 1519 1520 1518 1518 1520 1523 1522 1517 1507 1506 1503 1503 1505 1505 1507 1509 1509 1507 1505 1504 1504 1501 1493 1472 1469 1466 1463 1460 1458 1458 1454 1451 1448 1447 1445 1443 1440 1439 1439
1515 1516 1514 1515 1516 1515 1511 1510 1513 1514 1520 1513 1508 1506 1498 1500 1500 1502 1504 1505 1506 1505 1504 1503 1503 1499 1492 1474 1469 1466 1462 1461 1458 1454 1451 1449 1446 1444 1441 1438 1436 1435 1433 1433
1506 1508 1509 1507 1505 1504 1508 1507 1509 1510 1508 1502 1495 1492 1496 1497 1500 1500 1503 1503 1505 1508 1500 1499 1497 1484 1472 1470 1468 1464 1460 1457 1455 1451 1446 1444 1442 1439 1436 1434 1432 1430 1427 1426
1495 1496 1496 1497 1500 1503 1504 1504 1505 1502 1497 1487 1483 1483 1487 1492 1495 1496 1498 1499 1501 1509 1501 1499 1494 1484 1469 1467 1464 1461 1458 1455 1453 1451 1447 1444 1439 1434 1431 1428 1427 1424 1422 1420
1484 1486 1490 1496 1499 1500 1502 1498 1497 1493 1479 1474 1474 1476 1483 1486 1489 1491 1495 1498 1500 1500 1495 1497 1489 1472 1467 1465 1461 1458 1454 1452 1448 1446 1442 1437 1433 1429 1425 1423 1421 1419 1417 1416
1474 1481 1483 1486 1492 1495 1489 1480 1477 1474 1463 1461 1465 1473 1478 1482 1485 1488 1491 1496 1496 1493 1495 1482 1472 1467 1466 1463 1459 1455 1451 1447 1443 1438 1435 1430 1426 1423 1420 1418 1417 1415 1413 1411
1465 1469 1476 1474 1472 1464 1448 1444 1444 1446 1448 1449 1458 1467 1474 1478 1482 1484 1487 1485 1488 1488 1485 1470 1468 1467 1465 1461 1457 1451 1446 1442 1438 1434 1429 1425 1421 1418 1416 1413 1411 1409 1407 1405
1455 1456 1450 1447 1436 1435 1437 1438 1439 1441 1445 1447 1456 1464 1470 1475 1478 1479 1481 1483 1479 1469 1459 1465 1469 1465 1463 1458 1453 1449 1444 1439 1434 1430 1426 1421 1417 1414 1410 1408 1405 1403 1401 1399
1445 1438 1434 1430 1431 1430 1432 1433 1434 1435 1440 1446 1452 1460 1467 1469 1469 1474 1469 1470 1458 1461 1468 1469 1466 1463 1460 1456 1452 1448 1444 1439 1434 1429 1424 1420 1415 1411 1407 1404 1401 1398 1396 1394
1429 1422 1420 1420 1420 1420 1423 1426 1428 1431 1438 1441 1446 1451 1450 1459 1460 1460 1458 1462 1471 1471 1469 1466 1464 1461 1457 1454 1450 1446 1441 1436 1432 1427 1423 1418 1413 1409 1405 1400 1398 1395 1392 1389